Change the Weather History Date:

Saturday, February 23, 2013

  Actual Average Record
Temperature  
Mean Temperature 22 °F 34 °F  
Max Temperature 36 °F 47 °F 75 °F (1996)
Min Temperature 7 °F 20 °F -10 °F (1899)
Degree Days  
Heating Degree Days 43 32  
Month to date heating degree days 754 784  
Cooling Degree Days 0 0  
Month to date cooling degree days 0 0  
Year to date cooling degree days 0 0  
Moisture  
Dew Point 16 °F    
Average Humidity 74    
Maximum Humidity 92    
Minimum Humidity 56    
Precipitation  
Precipitation 0.00 in 0.03 in 0.80 in (1931)
Sea Level Pressure  
Sea Level Pressure 29.85 in    
Wind  
Wind Speed 5 mph (SSW)    
Max Wind Speed 36 mph    
Max Gust Speed 76 mph    
Visibility 8 miles    
Events      
T = Trace of Precipitation, MM = Missing Value Source: NWS Daily Summary

Daily Weather History Graph

Daily Weather History Graph

Search for Another Location

Airport or City:

Trip Planner

Search our weather history database for the weather conditions in past years. The results will help you decide how hot, cold, wet, or windy it might be!

Date:

Astronomy

Feb. 23, 2013 Rise Set
Actual Time 6:28 AM MST 5:31 PM MST
Civil Twilight 6:01 AM MST 5:59 PM MST
Nautical Twilight 5:29 AM MST 6:30 PM MST
Astronomical Twilight 4:57 AM MST 7:02 PM MST
Moon 3:43 PM MST (2/23) 4:52 AM MST (2/23)
Length of Visible Light 11h 57m
Length of Day
11h 02m
Waxing Gibbous, 95% of the Moon is Illuminated
Feb 23
Waxing Gibbous
Feb 25
Full
Mar 4
Last Quarter
Mar 11
New
Mar 19
First Quarter

Hourly Weather History & Observations

Time (MST) Temp. Windchill Dew Point Humidity Pressure Visibility Wind Dir Wind Speed Gust Speed Precip Events Conditions
12:53 AM 10.0 °F -0.9 °F 6.1 °F 84% 30.00 in 9.0 mi WSW 6.9 mph - N/A   Clear
1:53 AM 8.1 °F -2.0 °F 5.0 °F 87% 29.98 in 10.0 mi SW 5.8 mph - N/A   Clear
2:53 AM 9.0 °F 0.6 °F 3.9 °F 80% 29.95 in 10.0 mi WSW 4.6 mph - N/A   Clear
3:53 AM 9.0 °F 0.6 °F 3.9 °F 80% 29.93 in 10.0 mi SSW 4.6 mph - N/A   Clear
4:53 AM 9.0 °F 0.6 °F 3.9 °F 80% 29.93 in 10.0 mi West 4.6 mph - N/A   Clear
5:53 AM 10.0 °F 0.4 °F 6.1 °F 84% 29.93 in 10.0 mi WSW 5.8 mph - N/A   Clear
6:53 AM 9.0 °F -0.9 °F 3.9 °F 80% 29.94 in 10.0 mi SW 5.8 mph - N/A   Clear
7:53 AM 14.0 °F - 10.0 °F 84% 29.94 in 10.0 mi Calm Calm - N/A   Clear
8:53 AM 18.0 °F 9.8 °F 10.0 °F 71% 29.93 in 10.0 mi WSW 5.8 mph - N/A   Clear
9:53 AM 21.9 °F 14.5 °F 12.9 °F 68% 29.92 in 10.0 mi WSW 5.8 mph - N/A   Clear
10:53 AM 28.9 °F 21.9 °F 17.1 °F 61% 29.88 in 10.0 mi SW 6.9 mph - N/A   Clear
11:53 AM 30.9 °F 24.3 °F 18.0 °F 59% 29.86 in 10.0 mi SSW 6.9 mph - N/A   Clear
12:53 PM 34.0 °F 28.8 °F 19.9 °F 56% 29.83 in 10.0 mi SW 5.8 mph - N/A   Clear
1:53 PM 34.0 °F 28.8 °F 21.9 °F 61% 29.81 in 10.0 mi SSW 5.8 mph - N/A   Clear
2:53 PM 36.0 °F 32.1 °F 23.0 °F 59% 29.78 in 10.0 mi South 4.6 mph - N/A   Clear
3:53 PM 36.0 °F - 25.0 °F 64% 29.79 in 10.0 mi Calm Calm - N/A   Clear
4:53 PM 35.1 °F 32.2 °F 26.1 °F 70% 29.79 in 10.0 mi South 3.5 mph - N/A   Clear
5:53 PM 30.0 °F 25.2 °F 25.0 °F 82% 29.81 in 10.0 mi SSE 4.6 mph - N/A   Clear
6:53 PM 25.0 °F 18.1 °F 21.9 °F 88% 29.85 in 9.0 mi SE 5.8 mph - N/A   Clear
7:53 PM 21.9 °F 14.5 °F 19.9 °F 92% 29.83 in 7.0 mi SE 5.8 mph - N/A   Clear
8:53 PM 21.9 °F 15.7 °F 19.9 °F 92% 29.83 in 6.0 mi SSE 4.6 mph - N/A   Clear
9:27 PM 21.2 °F - 19.4 °F 93% 29.72 in 2.0 mi Calm Calm - N/A   Mostly Cloudy
9:37 PM 21.2 °F - 19.4 °F 93% 29.73 in 4.0 mi Calm Calm - N/A   Mostly Cloudy
9:53 PM 21.0 °F - 19.9 °F 96% 29.84 in 2.5 mi Calm Calm - N/A   Mostly Cloudy
10:05 PM 21.2 °F - 19.4 °F 93% 29.73 in 5.0 mi Calm Calm - N/A   Overcast
10:53 PM 24.1 °F - 21.9 °F 91% 29.81 in 7.0 mi Calm Calm - N/A   Overcast
11:39 PM 24.8 °F - 21.2 °F 86% 29.73 in 6.0 mi North - - N/A   Overcast
11:53 PM 24.1 °F - 21.9 °F 91% 29.81 in 7.0 mi North - - N/A   Overcast